Regional Weather Roundup
Issued by NWS

Home | Current Version | Previous Version | Text Only | Print | Product List | Glossary Off
Versions: 1 2 3 4 5 6 7 8 9 10 11 12 13 14 15 16 17 18 19 20 21 22 23 24 25 26 27 28 29 30 31 32 33 34 35 36 37 38 39 40 41 42 43 44 45 46 47 48 49 50

000
ASUS45 KPSR 260010
RWRAZ

ARIZONA HOURLY REGIONAL WEATHER ROUNDUP
NATIONAL WEATHER SERVICE PHOENIX AZ
500 PM MST SUN SEP 25 2016

NOTE: FAIR INDICATES FEW OR NO CLOUDS BELOW 12,000 FEET WITH NO
SIGNIFICANT WEATHER AND/OR OBSTRUCTIONS TO VISIBILITY.

AZZ001>003-036-260100-
NORTHWEST ARIZONA

CITY           SKY/WX    TMP DP  RH WIND       PRES   REMARKS
BULLHEAD CITY  SUNNY     91  32  12 N22G29    29.96F
KINGMAN        SUNNY     84  29  13 NE17G24   30.14F
6HR MIN TEMP:  75; 6HR MAX TEMP:  84;

$$

AZZ004>008-015-016-018-260100-
NORTH CENTRAL ARIZONA

CITY           SKY/WX    TMP DP  RH WIND       PRES   REMARKS
GRAND CANYON   SUNNY     64  31  28 NE13G25   30.38S
6HR MIN TEMP:  59; 6HR MAX TEMP:  66;

PRESCOTT       SUNNY     74  32  21 E8G17     30.21F
6HR MIN TEMP:  67; 6HR MAX TEMP:  75;

FLAGSTAFF      SUNNY     64  28  25 NE12G21   30.34F
6HR MIN TEMP:  56; 6HR MAX TEMP:  66;

PAYSON         SUNNY     75  30  19 NE15G21   30.22S
PAGE           SUNNY     75  27  17 NE8       30.28S
6HR MIN TEMP:  69; 6HR MAX TEMP:  76;

$$

AZZ009>014-017-260100-
NORTHEAST ARIZONA

CITY           SKY/WX    TMP DP  RH WIND       PRES   REMARKS
WINSLOW        SUNNY     78  27  15 VRB5      30.22F
6HR MIN TEMP:  65; 6HR MAX TEMP:  79;

SAINT JOHNS    SUNNY     76  25  15 E14       30.22S
6HR MIN TEMP:  66; 6HR MAX TEMP:  79;

WINDOW ROCK    SUNNY     70  29  21 NE12G22   30.35S
6HR MIN TEMP:  63; 6HR MAX TEMP:  72;

SHOW LOW       MOSUNNY   70  23  17 NE17G25   30.27S
$$

AZZ023-260100-
GREATER PHOENIX AREA

CITY           SKY/WX    TMP DP  RH WIND       PRES   REMARKS
PHOENIX        MOSUNNY   95  31  10 N6        29.89F
6HR MIN TEMP:  88; 6HR MAX TEMP:  95;

BUCKEYE        SUNNY     93  32  11 NE9       29.92F
GLENDALE       MOSUNNY   97  28   9 CALM      29.91F
LUKE AFB       SUNNY     95  28   9 NW6       29.89F
6HR MIN TEMP:  89; 6HR MAX TEMP:  96;

DEER VALLEY    SUNNY     94  30  10 E6        29.91F
6HR MIN TEMP:  87; 6HR MAX TEMP:  95;

SCOTTSDALE     SUNNY     93  28  10 SW5       29.93F
6HR MIN TEMP:  89; 6HR MAX TEMP:  95;

MESA-GATEWAY   MOSUNNY   93  32  11 NW12G17   29.91F
CHANDLER       MOSUNNY   95  30  10 NW8       29.90F
$$

AZZ027-028-260100-
SOUTHWEST MARICOPA COUNTY AND PINAL COUNTY

CITY           SKY/WX    TMP DP  RH WIND       PRES   REMARKS
CASA GRANDE    SUNNY     93  34  12 NE7       29.93F
6HR MIN TEMP:  84; 6HR MAX TEMP:  93;

GILA BEND      FAIR      95  28   9 NE13      29.87F
6HR MIN TEMP:  87; 6HR MAX TEMP:  96;

$$

AZZ503-504-507>509-260100-
SOUTHEAST ARIZONA

CITY           SKY/WX    TMP DP  RH WIND       PRES   REMARKS
TUCSON         MOSUNNY   89  34  14 NE9G17    29.99S
6HR MIN TEMP:  83; 6HR MAX TEMP:  90;

DAVIS-MONTHAN  SUNNY     87  35  15 NE16      29.97F
6HR MIN TEMP:  81; 6HR MAX TEMP:  90;

RYAN FIELD     SUNNY     90  34  13 MISG      29.97F
NOGALES        PTSUNNY   78  38  23 E6        30.04R
6HR MIN TEMP:  78; 6HR MAX TEMP:  85;

SIERRA VISTA   PTSUNNY   73  41  31 N7        30.11S
                                      6HR PCP: TRACE;

DOUGLAS        MOSUNNY   81  36  19 E15G25    30.06S
6HR MIN TEMP:  77; 6HR MAX TEMP:  85;

SAFFORD        MOSUNNY   88  35  15 E8        30.01F
6HR MIN TEMP:  80; 6HR MAX TEMP:  89;

$$

AZZ020-021-025-026-031-260100-
SOUTHWEST ARIZONA

CITY           SKY/WX    TMP DP  RH WIND       PRES   REMARKS
YUMA           SUNNY     97  31   9 NE10G22   29.87S
6HR MIN TEMP:  91; 6HR MAX TEMP:  98;

$$

CAZ031-033-041-043-047-048-061-260100-
SOUTHERN CALIFORNIA

CITY           SKY/WX    TMP DP  RH WIND       PRES   REMARKS
DOWNTOWN L.A.  SUNNY     90  38  16 VRB3      29.88F
6HR MIN TEMP:  89; 6HR MAX TEMP:  96;

L.A. AIRPORT   SUNNY     81  54  39 W13       29.89F
6HR MIN TEMP:  81; 6HR MAX TEMP:  92;

SAN DIEGO      SUNNY     90  53  28 N12       29.88F
6HR MIN TEMP:  85; 6HR MAX TEMP:  90;

BURBANK        SUNNY     94  29  10 SE8       29.90F
6HR MIN TEMP:  89; 6HR MAX TEMP:  99;

ONTARIO        SUNNY     96  13   5 NE23G32   29.91F
6HR MIN TEMP:  92; 6HR MAX TEMP:  99;

RIVERSIDE      SUNNY     98  19   6 N12G23    29.90F
6HR MIN TEMP:  91; 6HR MAX TEMP:  99;

PALM SPRINGS   SUNNY     98  26   7 N15       29.94F
6HR MIN TEMP:  91; 6HR MAX TEMP:  99;

EL CENTRO NAS  SUNNY     96  30   9 NE18      29.90F
6HR MIN TEMP:  92; 6HR MAX TEMP:  98; 6HR PCP: TRACE;

IMPERIAL       SUNNY     98  36  11 NE16      29.88F
6HR MIN TEMP:  93; 6HR MAX TEMP:  99;

BLYTHE         SUNNY     96  32  10 N13       29.91F
6HR MIN TEMP:  89; 6HR MAX TEMP:  97;

NEEDLES        SUNNY     94  32  11 N29G35    29.96F
6HR MIN TEMP:  88; 6HR MAX TEMP:  95;

$$

NVZ020-UTZ003-260100-
SOUTHERN NEVADA-UTAH

CITY           SKY/WX    TMP DP  RH WIND       PRES   REMARKS
LAS VEGAS      SUNNY     88  24  10 NE16      30.11F
6HR MIN TEMP:  80; 6HR MAX TEMP:  89;

SALT LAKE CITY SUNNY     66  42  41 NW13      30.41F
6HR MIN TEMP:  60; 6HR MAX TEMP:  68;

$$

NMZ009-TXZ055-260100-
NEW MEXICO-WEST TEXAS

CITY           SKY/WX    TMP DP  RH WIND       PRES   REMARKS
ALBUQUERQUE    PTSUNNY   72  35  25 E22       30.31R
6HR MIN TEMP:  69; 6HR MAX TEMP:  74;

EL PASO        CLOUDY    73  44  35 E24G31    30.16R
6HR MIN TEMP:  71; 6HR MAX TEMP:  80; 6HR PCP: TRACE;

$$


........................KEY........................
SKY/WX - SKY CONDITION/WEATHER
TMP    - TEMPERATURE IN FAHRENHEIT
DP     - DEW POINT IN FAHRENHEIT
RH     - RELATIVE HUMIDITY IN PERCENT
WIND   - DIRECTION AND SPEED IN MILES PER HOUR (MPH)
VRB    - VARIABLE WIND DIRECTION
PRES   - MEAN SEA LEVEL PRESSURE IN INCHES OF MERCURY
         F - FALLING PRESSURE   R - RISING PRESSURE
         S - STEADY PRESSURE
VSB    - VISIBILITY IN MILES
HX     - HEAT INDEX IN FAHRENHEIT
WCI    - WIND CHILL INDEX IN FAHRENHEIT
TC     - TEMPERATURE IN CELSIUS WHICH IS ALSO KNOWN AS
         TEMPERATURE IN CENTIGRADE
AFB    - AIR FORCE BASE
         LUKE AFB IS LUKE AIR FORCE BASE
         DAVIS-MONTHAN IS DAVIS-MONTHAN AIR FORCE BASE
NAS    - NAVAL AIR STATION
         EL CENTRO NAS IS EL CENTRO NAVAL AIR STATION
N/A    - NOT AVAILABLE




USA.gov is the U.S. government's official web portal to all federal, state and local government web resources and services.